When you browse on this site, cookies collect data to enhance your experience and personalize the content and advertising you see.
Visit our Privacy Policy to learn more. By continuing to use the site, you agree to this use of cookies and data.
EN

Hourly Weather Kubasovo

Today, 19 September, Saturday

Time Temperature Precipitation Wind Pressure Humidity
00:00 +12°C° 0.6 mm 4 mps 744 mmHg 85%
01:00 +12°C° 0 mm 4 mps 744 mmHg 84%
02:00 +12°C° 0 mm 4 mps 744 mmHg 84%
03:00 +11°C° 0 mm 4 mps 744 mmHg 83%
04:00 +11°C° 0 mm 4 mps 744 mmHg 83%
05:00 +9°C° 0 mm 5 mps 744 mmHg 84%
06:00 +8°C° 0 mm 5 mps 744 mmHg 84%
07:00 +9°C° 0 mm 6 mps 744 mmHg 78%
08:00 +10°C° 0 mm 7 mps 744 mmHg 71%
09:00 +11°C° 0 mm 8 mps 744 mmHg 65%
10:00 +12°C° 0 mm 8 mps 744 mmHg 61%
11:00 +13°C° 0 mm 8 mps 744 mmHg 58%
12:00 +15°C° 0 mm 9 mps 744 mmHg 54%
13:00 +15°C° 0.1 mm 9 mps 744 mmHg 53%
14:00 +15°C° 0.1 mm 9 mps 744 mmHg 51%
15:00 +15°C° 0.1 mm 9 mps 745 mmHg 49%
16:00 +13°C° 0 mm 9 mps 745 mmHg 56%
17:00 +12°C° 0 mm 9 mps 746 mmHg 63%
18:00 +11°C° 0 mm 9 mps 746 mmHg 69%
19:00 +10°C° 0 mm 9 mps 746 mmHg 70%
20:00 +8°C° 0 mm 9 mps 747 mmHg 71%
21:00 +9°C° 0 mm 8 mps 747 mmHg 71%
22:00 +7°C° 0 mm 8 mps 747 mmHg 73%
23:00 +8°C° 0 mm 7 mps 747 mmHg 74%

Tomorrow, 20 September, Sunday

Time Temperature Precipitation Wind Pressure Humidity
00:00 +7°C° 0 mm 6 mps 747 mmHg 75%
01:00 +7°C° 0 mm 6 mps 747 mmHg 79%
02:00 +7°C° 0 mm 6 mps 747 mmHg 82%
03:00 +7°C° 0 mm 6 mps 747 mmHg 85%
04:00 +7°C° 0 mm 6 mps 747 mmHg 86%
05:00 +5°C° 0 mm 6 mps 747 mmHg 86%
06:00 +6°C° 0 mm 5 mps 747 mmHg 86%
07:00 +8°C° 0 mm 6 mps 747 mmHg 78%
08:00 +9°C° 0 mm 6 mps 747 mmHg 70%
09:00 +11°C° 0 mm 7 mps 748 mmHg 61%
10:00 +11°C° 0.2 mm 8 mps 748 mmHg 59%
11:00 +12°C° 0.2 mm 8 mps 748 mmHg 56%
12:00 +12°C° 0.2 mm 9 mps 748 mmHg 54%
13:00 +12°C° 0.1 mm 10 mps 748 mmHg 53%
14:00 +12°C° 0.1 mm 10 mps 749 mmHg 53%
15:00 +11°C° 0.1 mm 10 mps 749 mmHg 53%
16:00 +9°C° 0 mm 10 mps 750 mmHg 55%
17:00 +8°C° 0 mm 9 mps 750 mmHg 58%
18:00 +9°C° 0 mm 8 mps 751 mmHg 61%
19:00 +7°C° 0 mm 8 mps 752 mmHg 62%
20:00 +8°C° 0 mm 7 mps 752 mmHg 63%
21:00 +7°C° 0 mm 6 mps 753 mmHg 64%
22:00 +7°C° 0 mm 6 mps 753 mmHg 66%
23:00 +6°C° 0 mm 5 mps 754 mmHg 68%

Day after tomorrow, 21 September, Monday

Time Temperature Precipitation Wind Pressure Humidity
00:00 +6°C° 0 mm 4 mps 754 mmHg 70%
01:00 +6°C° 0 mm 4 mps 754 mmHg 70%
02:00 +5°C° 0 mm 4 mps 755 mmHg 70%
03:00 +5°C° 0 mm 4 mps 755 mmHg 70%
04:00 +5°C° 0 mm 4 mps 755 mmHg 74%
05:00 +5°C° 0 mm 4 mps 755 mmHg 77%
06:00 +4°C° 0 mm 4 mps 755 mmHg 80%
07:00 +6°C° 0 mm 5 mps 756 mmHg 72%
08:00 +8°C° 0 mm 6 mps 756 mmHg 63%
09:00 +10°C° 0 mm 6 mps 756 mmHg 55%
10:00 +11°C° 0 mm 6 mps 756 mmHg 51%
11:00 +14°C° 0 mm 6 mps 755 mmHg 48%
12:00 +15°C° 0 mm 6 mps 755 mmHg 44%
13:00 +15°C° 0 mm 6 mps 755 mmHg 43%
14:00 +15°C° 0 mm 7 mps 754 mmHg 42%
15:00 +16°C° 0 mm 7 mps 754 mmHg 41%
16:00 +15°C° 0 mm 6 mps 754 mmHg 44%
17:00 +14°C° 0 mm 5 mps 754 mmHg 46%
18:00 +13°C° 0 mm 4 mps 754 mmHg 48%
19:00 +13°C° 0 mm 4 mps 754 mmHg 51%
20:00 +12°C° 0 mm 4 mps 754 mmHg 53%
21:00 +11°C° 0 mm 4 mps 754 mmHg 55%
22:00 +11°C° 0 mm 4 mps 754 mmHg 57%
23:00 +11°C° 0 mm 4 mps 754 mmHg 60%

22 September, Tuesday

Time Temperature Precipitation Wind Pressure Humidity
00:00 +9°C° 0 mm 5 mps 754 mmHg 62%
01:00 +9°C° 0 mm 5 mps 754 mmHg 64%
02:00 +9°C° 0 mm 5 mps 754 mmHg 66%
03:00 +9°C° 0 mm 5 mps 753 mmHg 68%
04:00 +9°C° 0 mm 5 mps 754 mmHg 70%
05:00 +8°C° 0 mm 4 mps 754 mmHg 72%
06:00 +8°C° 0 mm 4 mps 754 mmHg 75%
07:00 +11°C° 0 mm 4 mps 755 mmHg 70%
08:00 +12°C° 0 mm 4 mps 755 mmHg 66%
09:00 +14°C° 0 mm 4 mps 755 mmHg 61%
10:00 +15°C° 0 mm 4 mps 755 mmHg 58%
11:00 +17°C° 0 mm 4 mps 756 mmHg 55%
12:00 +19°C° 0 mm 4 mps 756 mmHg 51%
13:00 +19°C° 0 mm 4 mps 756 mmHg 50%
14:00 +20°C° 0 mm 4 mps 756 mmHg 49%
15:00 +20°C° 0 mm 4 mps 756 mmHg 47%
16:00 +19°C° 0 mm 3 mps 756 mmHg 52%
17:00 +18°C° 0 mm 2 mps 756 mmHg 56%
18:00 +16°C° 0 mm 2 mps 756 mmHg 60%
19:00 +16°C° 0 mm 1 mps 756 mmHg 64%
20:00 +15°C° 0 mm 1 mps 756 mmHg 67%
21:00 +14°C° 0 mm 1 mps 757 mmHg 70%
22:00 +14°C° 0 mm 1 mps 757 mmHg 71%
23:00 +14°C° 0 mm 1 mps 757 mmHg 72%

23 September, Wednesday

Time Temperature Precipitation Wind Pressure Humidity
00:00 +14°C° 0 mm 1 mps 757 mmHg 73%
01:00 +14°C° 0 mm 2 mps 757 mmHg 73%
02:00 +13°C° 0 mm 2 mps 757 mmHg 73%
03:00 +13°C° 0 mm 2 mps 757 mmHg 74%
04:00 +13°C° 0 mm 2 mps 757 mmHg 74%
05:00 +13°C° 0 mm 2 mps 757 mmHg 75%
06:00 +13°C° 0 mm 2 mps 758 mmHg 75%
07:00 +14°C° 0 mm 2 mps 758 mmHg 68%
08:00 +16°C° 0 mm 2 mps 758 mmHg 61%
09:00 +18°C° 0 mm 2 mps 758 mmHg 54%
10:00 +19°C° 0 mm 2 mps 758 mmHg 50%
11:00 +21°C° 0 mm 3 mps 758 mmHg 46%
12:00 +22°C° 0 mm 3 mps 758 mmHg 42%
13:00 +23°C° 0 mm 2 mps 757 mmHg 41%
14:00 +24°C° 0 mm 2 mps 757 mmHg 39%
15:00 +24°C° 0 mm 2 mps 757 mmHg 38%
16:00 +23°C° 0 mm 2 mps 757 mmHg 41%
17:00 +20°C° 0 mm 2 mps 756 mmHg 44%
18:00 +20°C° 0 mm 1 mps 756 mmHg 47%
19:00 +18°C° 0 mm 2 mps 756 mmHg 48%
20:00 +18°C° 0 mm 2 mps 756 mmHg 50%
21:00 +17°C° 0 mm 2 mps 757 mmHg 51%
22:00 +17°C° 0 mm 2 mps 757 mmHg 51%
23:00 +16°C° 0 mm 2 mps 757 mmHg 51%

24 September, Thursday

Time Temperature Precipitation Wind Pressure Humidity
00:00 +16°C° 0 mm 2 mps 757 mmHg 51%
01:00 +16°C° 0 mm 2 mps 757 mmHg 52%
02:00 +15°C° 0 mm 1 mps 757 mmHg 53%
03:00 +15°C° 0 mm 1 mps 757 mmHg 53%
04:00 +15°C° 0 mm 1 mps 757 mmHg 54%
05:00 +14°C° 0 mm 1 mps 757 mmHg 55%
06:00 +14°C° 0 mm 1 mps 757 mmHg 57%
07:00 +16°C° 0 mm 2 mps 757 mmHg 52%
08:00 +17°C° 0 mm 2 mps 757 mmHg 48%
09:00 +19°C° 0 mm 2 mps 758 mmHg 43%
10:00 +20°C° 0 mm 3 mps 757 mmHg 41%
11:00 +21°C° 0 mm 3 mps 757 mmHg 38%
12:00 +22°C° 0 mm 3 mps 757 mmHg 36%
13:00 +22°C° 0 mm 3 mps 757 mmHg 35%
14:00 +22°C° 0 mm 3 mps 757 mmHg 34%
15:00 +24°C° 0 mm 3 mps 757 mmHg 33%
16:00 +21°C° 0 mm 3 mps 756 mmHg 35%
17:00 +20°C° 0 mm 3 mps 756 mmHg 38%
18:00 +19°C° 0 mm 2 mps 756 mmHg 40%
19:00 +19°C° 0 mm 2 mps 756 mmHg 41%
20:00 +18°C° 0 mm 2 mps 756 mmHg 43%
21:00 +17°C° 0 mm 2 mps 756 mmHg 44%
22:00 +17°C° 0 mm 2 mps 756 mmHg 45%
23:00 +17°C° 0 mm 2 mps 756 mmHg 47%
Show more